Tracking 30692 objects as of 16-Jun-2025
HD Live streaming from Space Station
objects crossing your sky now

STARLINK-5376

Track STARLINK-5376 now!
10-day predictions
STARLINK-5376 is classified as:


NORAD ID: 56142
Int'l Code: 2023-046BC
Perigee: 563.6 km
Apogee: 569.0 km
Inclination: 43.0 °
Period: 95.8 minutes
Semi major axis: 6937 km
RCS: Unknown
Launch date: March 29, 2023
Source: United States (US)
Launch site: AIR FORCE EASTERN TEST RANGE (AFETR)
Your satellite tracking list
Your tracking list is empty




NASA's NSSDC Master Catalog

Two Line Element Set (TLE):
1 56142U 23046BC  25166.24998730  .00000401  00000-0  44824-4 0  9996
2 56142  43.0105 159.0273 0003930 275.6155  84.4239 15.02513501122521
Source of the keplerian elements: AFSPC